Location: Arboyeti
(42.1122°N, 44.6017°E)
Time: 20:54:46
(UTC+00:00)

CZ-4 R/B - Pass Details

Date: 19 April 2021
Orbit: 530 x 598 km, 97.7° (Epoch: 17 May)

Event Time Altitude Azimuth Distance (km) Brightness Sun altitude
Rises 16:34:16 0° 199° (SSW) 2,827 4.9 -9.0°
Reaches altitude 10° 16:36:50 10° 215° (SW) 1,932 4.2 -9.4°
Maximum altitude 16:40:06 22° 266° (W) 1,328 4.1 -10.0°
Drops below altitude 10° 16:43:23 10° 317° (NW) 1,940 5.4 -10.5°
Sets 16:45:59 0° 333° (NNW) 2,841 5.9 -10.9°
